Вернуться в каталог

DELTA 1 DEB

АктивенLEO
NORAD 10208·DEBRIS·🇺🇸 United States

Запущен Jul 14, 1977 с Cape Canaveral Space Force Station

Loading…

Ближайшие Пролёты (ближайшие 24 часа)

TLE

СвежийSource: Space-Track

Эпоха: Sep 14, 2026, 05:04 UTC

1 10208U 77065AM  26257.21172602  .00004204  00000-0  47521-3 0  9991
2 10208  28.9321 218.5077 0311773 104.7936 258.7402 14.55039416458654

Отслеживайте DELTA 1 DEB в реальном времени с AllMySat

Download on the App Store